STARLINK-2225, 48574

Orbit data source: Space-Track

STARLINK-2225, 48574 is a payload satellite owned by SpaceX/Seattle (US) in LEO that was launched on Sat, 15 May 2021 UTC via an FALCON 9 launch vehicle from the Air Force Eastern Test Range (AFETR). Payload-class satellites include a variety of spacecraft equipped with specific instruments for various scientific and technological missions. These include communications satellites like Starlink; space stations such as the ISS; scientific satellites like the Hubble; Earth observation satellites from companies like Planet Labs, Umbra, and HawkEye 360; GPS; miniature CubeSats for education and research; and military/defense satellites.

Loading next visibility...
Identifier
48574, 2021-041X
Orbit
LEO
Country
Flag of USUS
Related business
Manufacturer
SpaceX/Seattle
Mission
Operational Commercial Communications
Bus & Motor
STARLINK, Unknown motor
Mass
260 kg wet, ~248 kg dry
Launch date (UTC)
2021-05-15 (5 years ago)
Launch vehicle
FALCON 9
Launch site
Air Force Eastern Test Range (AFETR)
Object type
Payload
Rocket body
Debris
Shape & HBR
Box + 1 Pan, 10.1 m
Radar Cross Section
13.562 m², Large (>1 m²)

Expand to show TLE details & history
Last TLE update: 3 days ago

TLE from 3 days ago
0 STARLINK-2225
1 48574U 21041X   26170.77924635  .00000347  00000-0  22964-4 0  9996
2 48574  53.1623 346.0408 0001522 127.9495 232.1644 15.31703774281272
Epoch: 2026-06-19T18:42Z
TLE epoch observation values (Epoch: 2026-06-19T18:42:06.884Z)
Latitude
-0.00004°
Longitude
157.50876°
Altitude
472.269 km
Speed
7.631 km/s
True Right ascension
23h 04m 09s
True Declination
0° 00' 00"
Sunlit
Object was in daylight at epoch
Visualization orbit readout
Latitude
Unknown
Longitude
Unknown
Altitude
Unknown
Speed
Unknown
Apparent Right ascension
Unknown
Apparent Declination
Unknown
Sunlit
N/A
Visualization observer readout
Local Sidereal Time
21:38:20
Azimuth
Unknown
Elevation
Unknown
Doppler factor
Unknown
Orbital elements
Apogee altitude
472.027 km
Perigee altitude
469.943 km
Semi-major axis
6,849.122 km
Eccentricity
0.00015
Inclination
53.1623°
RAAN
346.0408°
Arg. of periapsis
127.9495°
True anomaly
232.15063°
Mean anomaly
232.1644°
Eccentric anomaly
232.15751°
Mean motion
3.82905 °/min
Orbital period
94.02 mins
BSTAR
0.000022964
Loading maneuver chart data...
Computing Atmospheric mass density...
Loading historical data...
Loading historical data...
Loading historical data...
Loading historical data...
Loading historical data...
Loading historical data...
Loading historical data...

Documentation

Showing up to 5 results
|